Location: Caltech
(34.1382°N, 118.1253°W)
Time: 23:11:27
(UTC-07:00)

KITSAT 1 - Visible Passes

Search period start: 24 July 2016 00:00
Search period end: 03 August 2016 00:00
Orbit: 1307 x 1323 km, 66.1° (Epoch: 23 July)

Date Brightness Start Highest point End Pass type
(mag) Time Alt. Az. Time Alt. Az. Time Alt. Az.
24 Jul 11.1 00:31:57 36° ENE 00:31:57 36° ENE 00:37:25 10° NE visible
24 Jul 10.9 02:23:54 38° WNW 02:25:17 41° NW 02:32:52 10° NNE visible
25 Jul 10.6 00:47:23 54° ENE 00:47:23 54° ENE 00:53:51 10° NE visible
25 Jul 11.5 02:39:20 25° WNW 02:41:43 28° NW 02:48:31 10° N visible
25 Jul 12.1 23:10:48 12° ENE 23:10:48 12° ENE 23:11:42 10° ENE visible
26 Jul 10.3 01:02:45 74° NNE 01:02:45 74° NNE 01:10:01 10° NNE visible
26 Jul 11.9 02:54:42 15° WNW 02:58:20 20° NW 03:03:56 10° N visible
26 Jul 11.7 23:26:08 20° ENE 23:26:08 20° ENE 23:29:28 10° NE visible
27 Jul 10.4 01:18:06 61° NW 01:18:06 61° NW 01:26:01 10° NNE visible
27 Jul 12.3 03:11:24 10° WNW 03:15:08 14° NW 03:18:54 10° N visible
27 Jul 11.2 23:41:26 32° ENE 23:41:26 32° ENE 23:46:20 10° NE visible
28 Jul 10.9 01:33:22 41° WNW 01:34:14 42° NW 01:41:51 10° NNE visible
28 Jul 10.6 23:56:41 50° ENE 23:56:41 50° ENE 00:02:47 10° NE visible
29 Jul 11.5 01:48:37 26° WNW 01:50:39 29° NW 01:57:31 10° N visible
29 Jul 12.1 22:19:55 11° ENE 22:19:55 11° ENE 22:20:26 10° ENE visible
30 Jul 10.3 00:11:51 72° NNE 00:11:51 72° NNE 00:18:59 10° NNE visible
30 Jul 12.0 02:03:47 16° WNW 02:07:14 20° NW 02:12:57 10° N visible
30 Jul 11.6 22:35:01 20° ENE 22:35:01 20° ENE 22:38:20 10° NE visible
31 Jul 10.4 00:26:57 63° WNW 00:26:57 63° WNW 00:34:59 10° NNE visible
31 Jul 12.4 02:20:07 10° WNW 02:24:02 14° NW 02:27:58 10° N visible
31 Jul 11.0 22:50:03 33° ENE 22:50:03 33° ENE 22:55:15 10° NE visible
01 Aug 11.0 00:41:58 41° WNW 00:43:10 43° NW 00:50:50 10° NNE visible
01 Aug 10.4 23:04:58 54° E 23:04:58 54° E 23:11:43 10° NE visible
02 Aug 11.6 00:56:52 25° W 00:59:34 30° NW 01:06:31 10° N visible
02 Aug 11.9 21:27:49 12° E 21:27:49 12° E 21:29:10 10° ENE visible
02 Aug 10.0 23:19:43 86° SE 23:19:46 87° ESE 23:27:56 10° NNE visible
